Wind_Speed
46 45 44 42 38 36 33 31 30 29 28 25 23 22 22 21 20 20 19 20 21 23 24 26 27 28 29 31 32 33 35 37 39 39 37 37 33 28
49 49 48 47 43 40 37 35 32 30 30 28 26 25 24 24 23 21 20 19 21 22 23 24 25 27 28 29 30 32 33 36 37 36 36 34 31 29
53 52 51 50 48 44 41 38 35 32 30 30 28 27 27 25 24 23 21 19 21 23 24 24 25 24 24 24 23 24 25 27 29 31 31 30 29 30
57 56 54 53 51 48 45 41 38 34 31 30 29 28 28 26 25 25 23 20 22 24 26 26 26 24 23 21 19 19 21 23 24 25 27 28 29 30
62 60 58 57 55 52 49 45 41 37 33 30 29 27 27 27 26 25 23 21 21 24 27 28 28 27 25 23 22 21 21 23 25 27 28 28 28 28
70 66 61 59 56 54 52 48 45 40 36 32 30 28 28 27 26 24 22 21 21 24 27 29 30 29 29 27 26 25 25 25 26 27 27 27 27 27
73 71 66 61 57 55 54 51 47 43 38 34 31 29 28 27 26 24 22 20 21 24 27 30 31 31 30 28 27 26 25 25 25 25 25 25 25 25
75 73 71 67 61 56 54 52 50 45 41 36 33 30 29 28 26 24 22 20 21 23 26 29 30 30 29 28 26 25 24 23 23 23 23 23 23 23
73 74 72 69 65 60 56 53 51 47 43 39 34 32 30 28 26 24 22 21 21 22 25 26 27 27 26 25 25 23 22 22 21 22 23 23 22 21
58 67 72 71 66 62 58 54 51 48 44 41 37 34 31 29 26 23 21 20 20 21 22 24 25 26 25 24 24 23 22 21 22 23 24 24 23 21
41 51 61 67 68 65 60 54 51 48 46 43 39 35 32 30 27 23 21 19 19 20 21 23 24 26 26 25 25 25 24 23 24 24 25 25 23 21
34 38 46 55 63 65 61 56 51 49 47 44 40 37 34 31 27 23 21 20 21 22 22 23 24 26 27 27 27 26 25 25 24 24 24 25 23 20
32 32 36 43 53 60 60 57 53 50 47 44 41 38 35 32 28 25 23 23 23 23 23 23 24 26 27 28 28 28 26 25 24 23 22 21 19 17
31 30 31 35 43 53 58 57 54 51 47 44 41 39 36 33 30 27 25 24 24 23 22 22 23 24 25 27 27 27 26 26 23 20 19 18 17 16
31 28 27 30 37 47 53 55 54 51 46 42 41 39 37 35 32 28 25 24 23 23 22 21 21 22 23 23 24 24 24 23 21 19 19 18 17 16
30 28 26 27 34 43 50 52 51 49 45 42 41 41 38 35 32 28 25 24 23 22 21 20 18 18 18 19 19 20 20 20 20 20 19 17 16 15
29 28 26 26 33 43 49 48 47 47 45 43 42 41 38 35 32 29 26 25 23 21 19 18 16 15 15 16 18 19 21 21 21 20 19 18 17 17
28 26 25 28 36 46 49 48 47 47 44 43 42 41 39 35 32 30 27 25 23 20 18 17 17 18 19 20 21 22 23 23 22 21 20 19 19 20
27 25 25 31 41 49 51 49 48 46 43 42 42 41 39 36 33 31 28 25 23 21 20 20 20 22 23 23 23 24 24 23 22 21 20 21 22 24
25 23 25 33 44 50 53 50 48 45 43 41 40 40 38 36 34 32 29 27 24 23 22 23 24 25 25 25 25 25 24 23 22 22 22 24 26 28
21 20 24 31 42 49 51 50 49 45 42 40 40 40 38 37 35 33 30 28 25 24 24 25 25 26 26 26 26 25 25 24 24 24 26 27 29 31
18 18 20 28 37 46 48 48 47 43 40 39 38 40 38 36 35 33 31 29 27 26 26 26 26 27 27 27 27 26 26 26 27 28 29 31 32 33
16 17 19 26 32 42 45 47 46 43 40 38 37 37 36 35 34 32 31 29 27 27 26 26 27 27 27 27 27 27 27 29 30 31 32 33 34 36
Wind_Direction
240 239 239 239 238 238 240 244 249 254 257 259 260 262 268 275 283 289 281 263 251 246 245 245 244 242 238 235 232 232 233 233 234 236 237 239 240 239
239 240 240 240 238 238 240 242 246 250 256 260 261 261 265 271 278 286 284 266 250 243 241 241 240 239 237 238 236 233 233 233 232 233 235 237 237 238
239 240 240 240 239 239 240 241 243 247 253 258 260 261 263 267 273 281 284 268 248 240 238 239 238 236 236 238 237 234 234 233 232 230 231 233 235 238
237 239 240 241 240 239 239 239 241 244 249 255 259 260 260 262 269 277 282 269 248 239 237 238 238 234 234 236 237 237 236 236 235 234 233 234 237 240
236 238 239 240 239 239 238 238 239 241 245 252 257 258 257 259 265 274 280 270 250 239 238 239 239 236 236 237 239 241 240 238 237 236 238 240 242 244
236 236 235 235 237 238 238 237 238 240 244 249 254 255 254 255 261 270 276 268 251 241 239 240 240 239 240 241 243 245 245 244 242 240 241 242 244 246
235 235 235 235 234 235 237 237 237 239 242 246 249 250 250 252 258 266 271 267 253 244 242 241 240 241 242 245 247 247 247 245 243 240 240 241 243 245
234 234 235 235 233 233 234 236 236 237 240 243 244 245 247 250 255 262 266 265 255 248 243 240 240 241 241 243 244 244 243 241 239 237 237 238 240 242
237 234 234 234 234 233 233 233 234 235 236 238 239 240 243 246 251 257 261 262 256 248 242 239 237 237 236 237 237 238 238 238 238 233 233 235 239 244
240 238 235 233 233 233 231 231 231 232 233 234 234 235 239 242 246 252 256 257 254 248 242 239 236 235 234 235 235 236 235 236 237 237 237 237 239 242
239 239 237 235 232 230 230 229 228 228 228 229 229 230 233 236 240 245 248 250 249 245 240 239 237 235 235 236 236 236 238 240 240 241 241 238 236 237
237 236 236 235 232 229 228 227 226 224 224 225 224 225 227 230 233 237 240 242 241 241 240 242 241 239 237 236 235 238 241 243 241 241 239 234 230 232
234 233 231 231 230 228 225 223 222 221 220 220 220 220 222 224 226 228 231 233 237 242 244 245 245 243 240 237 236 238 242 243 241 239 232 223 220 220
231 229 228 227 224 222 220 219 218 218 217 217 216 215 217 219 220 222 226 230 234 240 243 246 247 247 243 239 237 236 237 234 230 225 214 208 208 209
225 223 225 223 218 214 213 212 213 213 213 213 212 211 212 214 216 218 223 227 230 236 242 246 248 245 241 236 232 229 227 221 214 203 198 199 203 210
218 219 222 220 213 206 204 204 206 208 209 209 208 207 209 211 212 213 217 222 225 231 238 242 240 235 230 223 216 210 207 201 194 191 195 202 212 225
214 218 220 218 205 195 193 195 200 204 205 206 205 205 206 208 208 208 211 215 219 224 228 226 221 214 208 203 196 191 187 187 190 196 204 215 228 243
213 216 218 210 194 187 186 189 195 199 201 204 204 203 203 205 205 205 206 209 212 214 214 210 203 198 196 193 190 190 190 194 201 208 218 232 246 259
211 216 215 204 188 182 182 186 191 194 198 202 202 199 199 202 202 201 202 205 206 206 204 202 198 196 197 199 199 198 201 206 212 222 234 248 261 271
209 214 209 201 187 182 179 182 186 191 195 199 200 197 197 199 199 198 199 202 203 203 202 201 199 200 203 206 207 209 214 221 228 239 250 262 271 278
203 204 203 199 188 182 179 179 184 188 192 197 198 197 196 197 197 196 198 200 203 206 206 205 205 206 209 213 217 221 227 235 244 253 262 270 276 280
198 196 197 196 189 181 179 179 182 185 190 194 196 195 194 196 196 197 199 203 207 210 212 212 212 214 217 222 227 233 240 247 255 263 269 275 278 280
191 189 190 188 187 182 178 178 181 185 189 192 193 192 193 195 198 200 203 206 210 213 215 216 218 221 225 231 238 244 251 257 264 269 273 277 279 280
Height
5752 5757 5761 5764 5768 5772 5775 5778 5780 5781 5782 5783 5785 5785 5785 5785 5784 5784 5783 5783 5784 5786 5788 5790 5793 5795 5797 5800 5802 5804 5807 5811 5815 5819 5822 5826 5830 5833
5740 5744 5749 5753 5757 5761 5765 5769 5772 5774 5774 5776 5778 5779 5779 5779 5778 5778 5777 5777 5778 5780 5782 5784 5787 5789 5792 5794 5796 5798 5800 5803 5807 5811 5815 5819 5823 5826
5726 5731 5736 5741 5746 5750 5755 5760 5763 5765 5767 5768 5770 5771 5772 5773 5772 5771 5771 5770 5772 5774 5776 5779 5781 5784 5786 5788 5790 5792 5795 5798 5801 5804 5808 5812 5816 5819
5710 5717 5722 5727 5733 5738 5744 5749 5753 5756 5759 5760 5761 5763 5765 5766 5766 5765 5764 5764 5765 5767 5770 5773 5776 5778 5781 5783 5786 5788 5790 5793 5796 5799 5802 5806 5809 5812
5694 5701 5707 5713 5719 5725 5731 5737 5742 5747 5750 5752 5753 5755 5757 5759 5759 5759 5758 5757 5759 5761 5764 5767 5770 5773 5776 5779 5781 5784 5786 5788 5791 5793 5796 5799 5802 5805
5676 5684 5690 5696 5704 5711 5718 5725 5731 5736 5740 5743 5745 5747 5750 5751 5752 5752 5751 5751 5752 5754 5757 5760 5764 5767 5770 5773 5776 5778 5780 5783 5785 5787 5790 5792 5795 5798
5657 5665 5672 5680 5689 5697 5704 5712 5719 5725 5730 5734 5737 5740 5742 5744 5745 5745 5745 5745 5745 5747 5750 5754 5758 5761 5764 5767 5770 5772 5774 5776 5778 5780 5783 5785 5788 5790
5637 5646 5655 5664 5673 5682 5690 5699 5706 5714 5720 5725 5729 5732 5734 5736 5738 5739 5739 5739 5740 5742 5744 5747 5751 5754 5757 5760 5763 5766 5768 5769 5771 5774 5776 5779 5782 5784
5618 5628 5638 5648 5657 5667 5676 5684 5693 5702 5709 5715 5720 5723 5726 5729 5731 5732 5732 5733 5734 5736 5738 5741 5745 5748 5752 5754 5757 5759 5762 5764 5765 5768 5771 5774 5777 5779
5601 5610 5620 5631 5641 5652 5662 5671 5681 5690 5698 5705 5711 5715 5718 5722 5724 5725 5726 5727 5728 5731 5734 5737 5740 5743 5746 5749 5752 5754 5756 5758 5760 5763 5766 5768 5771 5774
5588 5595 5604 5614 5626 5638 5649 5660 5669 5679 5686 5694 5701 5706 5710 5714 5717 5719 5720 5722 5724 5726 5729 5732 5735 5738 5741 5744 5746 5749 5751 5753 5755 5758 5760 5763 5766 5768
5577 5583 5591 5599 5609 5622 5635 5647 5658 5668 5675 5683 5691 5697 5702 5706 5709 5713 5715 5718 5719 5721 5724 5727 5729 5732 5735 5737 5740 5742 5745 5747 5749 5752 5755 5757 5760 5763
5567 5572 5578 5585 5596 5609 5622 5635 5646 5656 5665 5673 5681 5688 5693 5698 5702 5706 5710 5713 5715 5718 5720 5721 5724 5727 5729 5731 5733 5736 5739 5742 5744 5747 5749 5752 5756 5759
5558 5563 5568 5574 5583 5596 5609 5623 5635 5646 5655 5664 5672 5679 5686 5691 5696 5699 5703 5707 5710 5713 5715 5717 5719 5721 5723 5725 5728 5730 5733 5736 5739 5742 5745 5749 5752 5755
5549 5555 5560 5565 5573 5584 5597 5611 5624 5636 5646 5655 5664 5671 5677 5683 5688 5693 5697 5701 5704 5707 5709 5712 5714 5716 5717 5720 5722 5725 5728 5731 5735 5738 5742 5746 5749 5752
5541 5547 5552 5557 5564 5574 5588 5602 5615 5628 5638 5647 5655 5662 5669 5676 5682 5687 5692 5696 5699 5702 5704 5707 5709 5711 5713 5715 5717 5720 5723 5727 5732 5736 5740 5743 5745 5747
5534 5540 5545 5551 5557 5568 5581 5595 5608 5619 5629 5638 5647 5655 5663 5669 5675 5680 5686 5690 5694 5697 5700 5702 5705 5707 5710 5712 5714 5717 5721 5725 5729 5733 5736 5739 5741 5743
5529 5535 5539 5544 5551 5562 5575 5588 5600 5612 5622 5632 5640 5648 5656 5663 5669 5674 5680 5684 5688 5692 5695 5698 5702 5705 5708 5711 5714 5717 5720 5723 5727 5730 5732 5734 5736 5737
5525 5530 5534 5539 5546 5557 5569 5582 5594 5606 5616 5625 5634 5642 5650 5657 5663 5669 5674 5679 5684 5688 5691 5695 5699 5702 5706 5709 5712 5715 5718 5721 5723 5725 5728 5729 5730 5731
5521 5525 5530 5534 5541 5551 5564 5576 5588 5599 5610 5620 5628 5636 5644 5652 5658 5664 5669 5674 5679 5683 5687 5691 5695 5699 5703 5706 5709 5712 5714 5717 5719 5721 5722 5723 5723 5723
5519 5523 5527 5532 5539 5548 5560 5572 5584 5595 5606 5615 5624 5633 5640 5647 5653 5659 5664 5669 5674 5678 5683 5687 5691 5696 5699 5703 5706 5708 5710 5712 5714 5715 5715 5716 5715 5714
5518 5522 5526 5531 5537 5547 5558 5570 5582 5593 5603 5612 5621 5629 5637 5643 5649 5655 5660 5665 5669 5673 5678 5682 5687 5691 5694 5697 5700 5703 5705 5706 5707 5708 5708 5708 5706 5705
5517 5522 5527 5532 5539 5547 5558 5570 5581 5592 5602 5610 5619 5626 5634 5640 5646 5651 5656 5660 5665 5669 5673 5677 5681 5685 5689 5692 5695 5697 5698 5699 5699 5699 5699 5698 5697 5695